Location: Sherrills_Ford_Terrell
(35.6000°N, 80.9830°W)
Time: 21:03:09
(UTC-04:00)

ISS - Visible Passes

Search period start: 25 October 2014 00:00
Search period end: 03 November 2014 23:00
Orbit: 412 x 416 km, 51.6° (Epoch: 25 October)

Date Brightness Start Highest point End Pass type
(mag) Time Alt. Az. Time Alt. Az. Time Alt. Az.
25 Oct -2.1 20:27:46 10° NW 20:30:15 42° W 20:30:15 42° W visible
26 Oct -3.4 19:38:32 10° NW 19:41:52 72° NE 19:43:44 24° ESE visible
27 Oct -0.7 20:26:46 10° W 20:29:03 17° SW 20:30:21 14° SSW visible
28 Oct -1.5 19:36:54 10° WNW 19:39:56 33° SW 19:42:57 10° SSE visible
30 Oct 0.2 19:36:51 10° WSW 19:37:40 11° SW 19:38:29 10° SW visible
